Location: Saint-Palais-sur-Mer
(45.6429°N, 1.0859°W)
Time: 00:08:21
(UTC+01:00)

Vanguard 1 - Pass Details

Date: 17 February 2026
Orbit: 653 x 3818 km, 34.2° (Epoch: 12 March)

Event Time Altitude Azimuth Distance (km) Brightness Sun altitude
Rises 22:59:15 0° 279° (W) 7,001 15.0 -45.0°
Reaches altitude 10° 23:04:26 10° 270° (W) 6,332 14.5 -45.8°
Maximum altitude 23:21:13 30° 219° (SW) 5,354 13.6 -47.9°
Enters shadow 23:25:37 29° 203° (SSW) 5,460 13.5 -48.5°
